{"data":{"norad_id":29349,"intl_designator":"2006-034A","name":"KOREASAT 5 (MUGUNGWHA 5)","alt_names":[],"object_type":"PAYLOAD","status":"ACTIVE","operator":null,"country":"SKOR","launch_date":"2006-08-22","launch_site_code":"SEAL","launch_vehicle":null,"mission":null,"orbit_class":"UNKNOWN","rcs_meters":25.1189,"size_class":null,"mass_kg":null,"dimensions":null,"purposes":["comms"],"wikipedia_slug":null,"has_3d_model":false,"image_url":null,"decayed_at":null,"tle_current":{"epoch":"2026-05-25T00:51:06.241824Z","epoch_age_seconds":68049,"freshness":"FRESH","line1":"1 29349U 06034A   26145.03548891 -.00000360  00000+0  00000+0 0  9994","line2":"2 29349   1.7279  83.2550 0001802  10.8691 274.3344  1.00271436 41088","mean_motion":1.00271436,"eccentricity":0.0001802,"inclination_deg":1.7279,"raan_deg":83.255,"arg_perigee_deg":10.8691,"mean_anomaly_deg":274.3344,"bstar":0,"rev_number":4108,"period_min":1436.1019024401,"perigee_km":35779.094696514,"apogee_km":35794.290901173,"semimajor_km":42164.829798844,"source":"CELESTRAK","updated_at":"2026-05-25T13:38:13.852784Z"}}}